Showing default

SWIFT, 28485

Orbit data source: Space-Track

SWIFT, 28485 is a payload satellite owned by GSFC (US) in LEO that was launched on Sat, 20 Nov 2004 UTC via a DELTA 7320-10C launch vehicle from the Air Force Eastern Test Range (AFETR). Payload-class satellites include a variety of spacecraft equipped with specific instruments for various scientific and technological missions. These include communications satellites like Starlink; space stations such as the ISS; scientific satellites like the Hubble; Earth observation satellites from companies like Planet Labs, Umbra, and HawkEye 360; GPS; miniature CubeSats for education and research; and military/defense satellites.

Not visible in the next 10 days
Identifier
28485, 2004-047A
Orbit
LEO
Country
Flag of USUS
Related business
Manufacturer
GD C4 Systems
Mission
Operational Civil Astronomy
Bus & Motor
SA-200HP, Unknown motor
Mass
1,470 kg wet, 1,470 kg dry
Launch date (UTC)
2004-11-20 (21 years ago)
Launch vehicle
DELTA 7320-10C
Launch site
Air Force Eastern Test Range (AFETR)
Object type
Payload
Rocket body
Debris
Shape & HBR
Cyl + 2 Pan, 8.7 m
Radar Cross Section
6.084 m², Large (>1 m²)

Expand to show TLE details & history
Last TLE update: 1 day ago

TLE from 1 day ago
0 SWIFT
1 28485U 04047A   25305.63800861  .00035015  00000-0  66268-3 0  9994
2 28485  20.5534 112.2610 0006041  63.6963 296.4099 15.46500348151333
Epoch: 2025-11-01T15:18Z
TLE epoch observation values (Epoch: 2025-11-01T15:18:43.943Z)
Latitude
-0.00002°
Longitude
-158.58737°
Altitude
422.719 km
Speed
7.662 km/s
True Right ascension
07h 29m 02s
True Declination
0° 00' 00"
Sunlit
Object was in daylight at epoch
Visualization orbit readout
Latitude
Unknown
Longitude
Unknown
Altitude
Unknown
Speed
Unknown
Apparent Right ascension
Unknown
Apparent Declination
Unknown
Sunlit
N/A
Visualization observer readout
Local Sidereal Time
12:03:36
Azimuth
Unknown
Elevation
Unknown
Doppler factor
Unknown
Orbital elements
Apogee altitude
436.37 km
Perigee altitude
428.142 km
Semi-major axis
6,810.393 km
Eccentricity
0.0006
Inclination
20.5534°
RAAN
112.261°
Arg. of periapsis
63.6963°
True anomaly
296.34788°
Mean anomaly
296.4099°
Eccentric anomaly
296.37889°
Mean motion
3.86176 °/min
Orbital period
93.22 mins
BSTAR
0.00066268
Loading maneuver chart data...
Computing Atmospheric mass density...
Loading historical data...
Loading historical data...
Loading historical data...
Loading historical data...
Loading historical data...
Loading historical data...
Loading historical data...
Other satellites on launch #47 in the year 2004 (2004-11-20 UTC)

Documentation

Showing up to 5 results
|